Paynesville, MN

4:36 AM CDT on May 29, 2017 (GMT -0500)
Paynesville

Weather History for KPEX - October, 2011

Change the Weather History Date:

Monday, October 31, 2011

  Actual Average (KLJF) Record (KLJF)
Temperature  
Mean Temperature 38 °F -  
Max Temperature 51 °F 50 °F 81 °F (1950)
Min Temperature 25 °F 34 °F 12 °F (1951)
Degree Days  
Heating Degree Days 27    
Moisture  
Dew Point 30 °F    
Average Humidity 80    
Maximum Humidity 100    
Minimum Humidity 43    
Precipitation  
Precipitation 0.00 in - - ()
Sea Level Pressure  
Sea Level Pressure 29.96 in    
Wind  
Wind Speed 5 mph (SSW)    
Max Wind Speed 12 mph    
Max Gust Speed 17 mph    
Visibility 6 miles    
Events Fog    
Averages and records for this station are not official NWS values.
T = Trace of Precipitation, MM = Missing Value Source: NWS Daily Summary

Daily Weather History Graph

Daily Weather History Graph

Search for Another Location

Airport or City:

Trip Planner

Search our weather history database for the weather conditions in past years. The results will help you decide how hot, cold, wet, or windy it might be!

Date:

Astronomy

Oct. 31, 2011 Rise Set
Actual Time 7:56 AM CDT 6:08 PM CDT
Civil Twilight 7:25 AM CDT 6:38 PM CDT
Nautical Twilight 6:50 AM CDT 7:13 PM CDT
Astronomical Twilight 6:16 AM CDT 7:47 PM CDT
Moon 1:10 PM CDT (10/31) 10:39 PM CDT (10/31)
Length of Visible Light 11h 13m
Length of Day
10h 11m
Waxing Crescent, 30% of the Moon is Illuminated
Oct 31
Waxing Crescent
Nov 2
First Quarter
Nov 10
Full
Nov 18
Last Quarter
Nov 25
New

Hourly Weather History & Observations

Time (CDT) Temp. Windchill Dew Point Humidity Pressure Visibility Wind Dir Wind Speed Gust Speed Precip Events Conditions
12:12 AM 31.1 °F 25.4 °F 30.2 °F 96% 29.97 in 7.0 mi West 5.8 mph - N/A   Scattered Clouds
12:32 AM 31.1 °F 25.4 °F 30.2 °F 96% 29.98 in 7.0 mi West 5.8 mph - N/A   Clear
12:52 AM 32.0 °F 26.4 °F 31.3 °F 97% 29.98 in 7.0 mi West 5.8 mph - N/A   Clear
1:12 AM 31.6 °F 27.0 °F 30.7 °F 96% 29.98 in 7.0 mi West 4.6 mph - N/A   Clear
1:32 AM 31.1 °F 27.7 °F 30.2 °F 96% 29.98 in 7.0 mi West 3.5 mph - N/A   Clear
1:52 AM 31.6 °F 28.3 °F 30.9 °F 97% 29.97 in 7.0 mi West 3.5 mph - N/A   Clear
2:12 AM 31.3 °F 25.6 °F 30.7 °F 98% 29.98 in 5.0 mi West 5.8 mph - N/A   Clear
2:32 AM 29.3 °F 24.3 °F 28.8 °F 98% 29.98 in 3.0 mi West 4.6 mph - N/A   Clear
2:52 AM 27.7 °F 22.4 °F 27.3 °F 99% 29.99 in 3.0 mi West 4.6 mph - N/A   Clear
3:12 AM 27.1 °F 19.7 °F 26.8 °F 99% 29.99 in 3.0 mi West 6.9 mph - N/A   Clear
3:32 AM 28.4 °F 22.2 °F 28.4 °F 100% 29.99 in 3.0 mi West 5.8 mph - N/A   Clear
3:52 AM 27.5 °F 22.2 °F 27.5 °F 100% 29.99 in 4.0 mi West 4.6 mph - N/A   Clear
4:12 AM 27.1 °F - 27.0 °F 99% 29.99 in 4.0 mi Calm Calm - N/A   Clear
4:32 AM 27.5 °F 23.6 °F 27.5 °F 100% 29.99 in 2.0 mi WSW 3.5 mph - N/A   Clear
4:52 AM 27.0 °F - 26.6 °F 99% 29.99 in 0.2 mi Calm Calm - N/A Fog Light Freezing Fog
5:12 AM 26.6 °F 21.2 °F 26.2 °F 99% 30.00 in 0.2 mi West 4.6 mph - N/A Fog Light Freezing Fog
5:32 AM 25.3 °F 16.0 °F 25.0 °F 99% 30.01 in 0.2 mi West 9.2 mph - N/A Fog Light Freezing Fog
5:52 AM 25.9 °F 18.2 °F 25.5 °F 99% 30.01 in 0.8 mi West 6.9 mph - N/A   Overcast
6:12 AM 27.1 °F - 26.6 °F 98% 30.01 in 4.0 mi Calm Calm - N/A   Mostly Cloudy
6:31 AM 27.5 °F - 27.3 °F 99% 29.99 in 2.5 mi Calm Calm - N/A   Scattered Clouds
6:52 AM 27.1 °F - 26.6 °F 98% 29.99 in 0.2 mi Calm Calm - N/A Fog Light Freezing Fog
7:12 AM 26.4 °F - 26.1 °F 99% 29.99 in 0.2 mi Calm Calm - N/A Fog Light Freezing Fog
7:32 AM 26.6 °F - 26.2 °F 99% 29.99 in 0.2 mi Calm Calm - N/A Fog Light Freezing Fog
7:52 AM 27.0 °F - 26.6 °F 99% 30.00 in 0.2 mi Calm Calm - N/A Fog Light Freezing Fog
8:12 AM 27.5 °F - 27.1 °F 99% 30.00 in 0.2 mi Calm Calm - N/A Fog Light Freezing Fog
8:32 AM 27.9 °F - 27.5 °F 99% 30.01 in 0.2 mi Calm Calm - N/A Fog Light Freezing Fog
8:51 AM 27.9 °F - 27.5 °F 99% 30.00 in 0.2 mi Calm Calm - N/A Fog Light Freezing Fog
9:12 AM 28.0 °F - 27.7 °F 99% 30.01 in 0.2 mi Calm Calm - N/A Fog Light Freezing Fog
9:32 AM 28.2 °F - 28.0 °F 99% 30.01 in 0.2 mi Calm Calm - N/A Fog Light Freezing Fog
9:52 AM 29.1 °F - 28.9 °F 99% 30.01 in 0.2 mi Calm Calm - N/A Fog Light Freezing Fog
10:12 AM 31.1 °F - 30.9 °F 99% 30.01 in 0.2 mi Calm Calm - N/A Fog Light Freezing Fog
10:32 AM 32.7 °F 29.6 °F 32.5 °F 99% 30.00 in 0.2 mi East 3.5 mph - N/A Fog Fog
10:52 AM 34.5 °F 31.6 °F 34.3 °F 99% 29.99 in 0.2 mi East 3.5 mph - N/A Fog Fog
11:12 AM 37.4 °F - 37.4 °F 100% 29.99 in 0.5 mi Calm Calm - N/A Fog Fog
11:32 AM 39.0 °F 34.8 °F 38.7 °F 99% 29.99 in 10.0 mi SSW 5.8 mph - N/A   Scattered Clouds
11:52 AM 39.7 °F 34.9 °F 39.6 °F 99% 29.98 in 10.0 mi SSW 6.9 mph - N/A   Clear
12:11 PM 41.0 °F 35.8 °F 39.7 °F 95% 29.97 in 10.0 mi South 8.1 mph - N/A   Scattered Clouds
12:32 PM 42.4 °F 38.1 °F 39.0 °F 88% 29.97 in 10.0 mi SSW 6.9 mph - N/A   Clear
12:52 PM 44.6 °F 40.2 °F 35.4 °F 70% 29.97 in 10.0 mi SSW 8.1 mph - N/A   Clear
1:12 PM 45.0 °F 40.6 °F 34.5 °F 67% 29.96 in 10.0 mi South 8.1 mph - N/A   Clear
1:32 PM 46.2 °F 42.2 °F 33.8 °F 62% 29.96 in 10.0 mi SSW 8.1 mph - N/A   Clear
1:52 PM 46.9 °F - 33.4 °F 59% 29.95 in 10.0 mi SSW 9.2 mph - N/A   Clear
2:12 PM 47.7 °F - 33.6 °F 58% 29.93 in 10.0 mi SSE 5.8 mph - N/A   Clear
2:32 PM 49.1 °F - 32.5 °F 53% 29.93 in 10.0 mi SSW 9.2 mph - N/A   Clear
3:12 PM 50.0 °F - 31.1 °F 48% 29.91 in 10.0 mi South 8.1 mph - N/A   Clear
3:32 PM 50.4 °F - 31.8 °F 49% 29.91 in 10.0 mi SE 8.1 mph - N/A   Clear
3:52 PM 51.1 °F - 30.7 °F 46% 29.90 in 10.0 mi SSW 8.1 mph - N/A   Clear
4:12 PM 51.8 °F - 29.8 °F 43% 29.89 in 10.0 mi South 10.4 mph - N/A   Clear
4:32 PM 51.6 °F - 30.2 °F 44% 29.89 in 10.0 mi SSE 10.4 mph - N/A   Clear
4:52 PM 51.4 °F - 30.4 °F 44% 29.89 in 10.0 mi SSE 10.4 mph - N/A   Clear
5:12 PM 51.1 °F - 30.2 °F 45% 29.88 in 10.0 mi SSE 9.2 mph - N/A   Clear
5:32 PM 50.7 °F - 30.2 °F 45% 29.88 in 10.0 mi SSE 9.2 mph - N/A   Clear
5:52 PM 49.6 °F - 30.7 °F 48% 29.87 in 10.0 mi SE 9.2 mph - N/A   Clear
6:12 PM 48.9 °F - 31.1 °F 50% 29.88 in 10.0 mi SSE 8.1 mph - N/A   Clear
6:32 PM 47.8 °F - 31.3 °F 53% 29.88 in 10.0 mi SE 8.1 mph - N/A   Clear
7:12 PM 47.1 °F - 31.3 °F 54% 29.87 in 10.0 mi SE 9.2 mph - N/A   Clear
7:32 PM 46.8 °F - 30.9 °F 54% 29.87 in 10.0 mi SSE 10.4 mph - N/A   Clear
7:52 PM 46.6 °F - 30.9 °F 54% 29.87 in 10.0 mi SSE 11.5 mph 17.3 mph N/A   Mostly Cloudy
8:12 PM 46.6 °F - 30.9 °F 54% 29.86 in 10.0 mi SSE 11.5 mph 17.3 mph N/A   Overcast
8:32 PM 46.9 °F - 30.7 °F 53% 29.87 in 10.0 mi SSE 10.4 mph - N/A   Overcast
9:12 PM 47.5 °F - 30.2 °F 51% 29.86 in 10.0 mi SSE 9.2 mph - N/A   Overcast
9:32 PM 48.2 °F - 29.3 °F 48% 29.86 in 10.0 mi South 11.5 mph 17.3 mph N/A   Overcast
9:52 PM 48.4 °F - 29.3 °F 48% 29.86 in 10.0 mi SSE 10.4 mph 17.3 mph N/A   Overcast
10:12 PM 48.4 °F - 28.9 °F 47% 29.86 in 10.0 mi SSE 9.2 mph - N/A   Overcast
10:32 PM 48.2 °F - 28.9 °F 47% 29.86 in 10.0 mi SSE 9.2 mph - N/A   Scattered Clouds
11:12 PM 49.1 °F - 27.9 °F 44% 29.85 in 10.0 mi South 12.7 mph 16.1 mph N/A   Clear
11:32 PM 48.7 °F - 27.5 °F 44% 29.84 in 10.0 mi South 11.5 mph 17.3 mph N/A   Mostly Cloudy
11:52 PM 48.2 °F - 28.0 °F 46% 29.84 in 10.0 mi South 10.4 mph 16.1 mph N/A   Overcast